Visibility
5.8 14.1 8.8 15.0 15.0 3.9 11.0 15.0 15.0 3.1 4.9 5.8 5.5 15.0 15.0 15.0 15.0 15.0 15.0 15.0 15.0 15.0
2.2 0.3 13.6 3.4 2.7 2.6 3.1 13.4 13.5 5.0 7.4 4.8 5.9 4.9 8.7 15.0 15.0 15.0 15.0 15.0 15.0 15.0
2.7 5.7 3.4 6.2 10.3 4.8 3.8 1.1 0.2 0.5 8.1 4.1 4.0 5.2 15.0 14.9 14.6 15.0 15.0 15.0 15.0 15.0
8.8 7.8 14.3 13.8 15.0 2.6 2.8 6.0 10.2 1.0 0.2 1.1 0.6 4.9 6.0 9.6 15.0 15.0 15.0 15.0 15.0 15.0
15.0 8.3 15.0 15.0 15.0 15.0 7.9 7.7 15.0 2.5 14.6 9.3 0.5 1.3 3.5 6.5 15.0 15.0 15.0 15.0 15.0 15.0
15.0 15.0 15.0 15.0 15.0 15.0 15.0 12.4 13.0 15.0 12.5 9.0 8.7 5.1 5.3 5.2 7.3 13.8 12.6 15.0 15.0 15.0
15.0 15.0 15.0 15.0 15.0 15.0 15.0 15.0 15.0 11.7 10.2 14.7 15.0 15.0 15.0 10.8 15.0 12.8 15.0 15.0 12.0 13.6
15.0 15.0 15.0 15.0 15.0 15.0 15.0 15.0 15.0 15.0 15.0 15.0 13.8 14.7 13.8 15.0 15.0 15.0 9.3 11.5 13.4 15.0
15.0 15.0 15.0 15.0 15.0 15.0 15.0 15.0 15.0 15.0 15.0 15.0 15.0 0.3 0.1 0.1 15.0 12.7 15.0 15.0 15.0 15.0
15.0 15.0 15.0 15.0 15.0 15.0 15.0 15.0 15.0 15.0 15.0 15.0 15.0 15.0 2.1 0.1 0.1 15.0 15.0 15.0 13.9 15.0
15.0 15.0 15.0 15.0 15.0 15.0 15.0 15.0 15.0 15.0 15.0 15.0 8.6 15.0 15.0 15.0 15.0 15.0 15.0 15.0 15.0 15.0
15.0 15.0 15.0 15.0 15.0 15.0 15.0 15.0 15.0 15.0 15.0 11.8 15.0 15.0 15.0 0.3 15.0 2.1 0.4 15.0 15.0 15.0
15.0 15.0 15.0 15.0 15.0 15.0 15.0 15.0 15.0 15.0 15.0 15.0 15.0 15.0 15.0 15.0 15.0 15.0 15.0 15.0 15.0 0.2
15.0 15.0 15.0 15.0 15.0 15.0 15.0 15.0 15.0 15.0 15.0 15.0 15.0 15.0 15.0 15.0 15.0 15.0 15.0 15.0 15.0 15.0